Regional Weather Roundup
Issued by NWS Little Rock, AR

Home | Current Version | Previous Version | Graphics & Text | Print | Product List | Glossary On
Versions: 1 2 3 4 5 6 7 8 9 10 11 12 13 14 15 16 17 18 19 20 21 22 23 24 25 26 27 28 29 30 31 32 33 34 35 36 37 38 39 40 41 42 43 44 45 46 47 48 49 50
000
ASUS44 KLZK 261305
RWRLZK

WEATHER ROUNDUP FOR ARKANSAS
NATIONAL WEATHER SERVICE LITTLE ROCK AR
800 AM CDT SUN APR 26 2015

NOTE: "FAIR" INDICATES FEW OR NO CLOUDS BELOW 12,000 FEET WITH NO
SIGNIFICANT WEATHER AND/OR OBSTRUCTIONS TO VISIBILITY.

ARZ001-003-010-029-261400-
NORTHWEST ARKANSAS

CITY           SKY/WX    TMP DP  RH WIND       PRES   REMARKS
FAYETTEVILLE   CLOUDY    55  52  89 NE13G20   29.81R
FORT SMITH     SUNNY     61  55  81 E7        29.77R
HARRISON       CLOUDY    56  52  86 NE7       29.83R
BENTONVILLE    CLOUDY    55  48  76 E12       29.83R
ROGERS         CLOUDY    55  50  83 E13       29.83R
SILOAM SPGS    CLOUDY    55  46  71 E7        29.83R
HIGHFILL       CLOUDY    56  49  77 E12       29.81R
SPRINGDALE     CLOUDY    55  50  82 E12       29.83R
$$

ARZ004-005-016-261400-
NORTH CENTRAL ARKANSAS

CITY           SKY/WX    TMP DP  RH WIND       PRES   REMARKS
BATESVILLE     CLOUDY    57  54  88 CALM      29.81R
FLIPPIN        CLOUDY    57  52  82 NE5       29.82R
MTN HOME       CLOUDY    56  51  84 VRB3      29.83R
$$

ARZ040-041-261400-
WEST CENTRAL ARKANSAS

CITY           SKY/WX    TMP DP  RH WIND       PRES   REMARKS
MENA           SUNNY     57  54  88 CALM      29.78R
MOUNT IDA      SUNNY     55  52  89 CALM      29.75R
$$

ARZ009-017-025-026-028-261400-
NORTHEAST ARKANSAS

CITY           SKY/WX    TMP DP  RH WIND       PRES   REMARKS
CORNING          N/A     54  48  82 N14       29.84R
JONESBORO      CLOUDY    57  53  86 N7        29.80R
NEWPORT        CLOUDY    59  56  89 NE16      29.82R
WALNUT RIDGE   CLOUDY    55  48  76 N13       29.81R
BLYTHEVILLE    CLOUDY    56  54  93 N15       29.81R
$$

ARZ022-023-033-042-044-261400-
CENTRAL ARKANSAS

CITY           SKY/WX    TMP DP  RH WIND       PRES   REMARKS
LITTLE ROCK    SUNNY     63  54  72 N9        29.79R
N LITTLE ROCK    N/A     60  57  89 N7        29.79R
JACKSONVILLE   SUNNY     62  56  81 N6        29.79R
SEARCY         SUNNY     61  56  83 N7        29.82R
HOT SPRINGS    SUNNY     60  55  83 CALM      29.77R
RUSSELLVILLE   SUNNY     61  55  81 NE5       29.79R
CLINTON        CLOUDY    59  54  82 CALM      29.83R
$$

ARZ036-261400-
EAST ARKANSAS

CITY           SKY/WX    TMP DP  RH WIND       PRES   REMARKS
WEST MEMPHIS   CLOUDY    59  58  96 N14       29.77R
$$

ARZ050-053-066-070-073-261400-
SOUTHWEST ARKANSAS

CITY           SKY/WX    TMP DP  RH WIND       PRES   REMARKS
ARKADELPHIA    FAIR      61  58  90 CALM      29.77R
CAMDEN         SUNNY     59  55  88 CALM      29.77R
TEXARKANA      SUNNY     61  57  87 NE7       29.74R
EL DORADO      SUNNY     62  58  86 CALM      29.76R
DE QUEEN       SUNNY     56  54  93 E5        29.73R
$$

ARZ056-057-069-261400-
SOUTHEAST ARKANSAS

CITY           SKY/WX    TMP DP  RH WIND       PRES   REMARKS
PINE BLUFF     SUNNY     64  57  78 N10       29.78R
STUTTGART      SUNNY     63  55  77 N14       29.78R
MONTICELLO     SUNNY     65  57  75 VRB3      29.76R

$$




USA.gov is the U.S. government's official web portal to all federal, state and local government web resources and services.